{"data":{"norad_id":65167,"intl_designator":"2025-174D","name":"HULIANWANG DIGUI-61","alt_names":[],"object_type":"PAYLOAD","status":"ACTIVE","operator":null,"country":"PRC","launch_date":"2025-08-13","launch_site_code":"WSC","launch_vehicle":null,"mission":null,"orbit_class":"UNKNOWN","rcs_meters":null,"size_class":null,"mass_kg":null,"dimensions":null,"purposes":[],"wikipedia_slug":null,"has_3d_model":false,"image_url":null,"decayed_at":null,"tle_current":{"epoch":"2026-05-25T04:06:37.710720Z","epoch_age_seconds":53536,"freshness":"FRESH","line1":"1 65167U 25174D   26145.17126980  .00000042  00000+0  64534-4 0  9997","line2":"2 65167  86.4959 259.7991 0002056  93.2986 266.8383 13.24404521 37743","mean_motion":13.24404521,"eccentricity":0.0002056,"inclination_deg":86.4959,"raan_deg":259.7991,"arg_perigee_deg":93.2986,"mean_anomaly_deg":266.8383,"bstar":6.4534e-5,"rev_number":3774,"period_min":108.72810966492,"perigee_km":1166.3915233626,"apogee_km":1169.4944714575,"semimajor_km":7546.07999741,"source":"CELESTRAK","updated_at":"2026-05-25T13:38:05.173446Z"}}}